Time,TemperatureF,DewpointF,PressureIn,WindDirection,WindDirectionDegrees,WindSpeedMPH,WindSpeedGustMPH,Humidity,HourlyPrecipIn,Conditions,Clouds,dailyrainin,SoftwareType,DateUTC
2013-09-20 00:00:00,69.4,67.3,29.66,SW,236,5.0,5.0,93,0.00,,,0.00,Wunderground v.1.15,2013-09-20 05:00:00,
2013-09-20 00:05:00,69.3,67.2,29.65,SSW,211,5.0,7.0,93,0.00,,,0.00,Wunderground v.1.15,2013-09-20 05:05:00,
2013-09-20 00:10:00,69.3,67.2,29.66,WSW,242,5.0,8.0,93,0.00,,,0.00,Wunderground v.1.15,2013-09-20 05:10:00,
2013-09-20 00:15:00,69.2,67.1,29.66,SSW,207,4.0,8.0,93,0.00,,,0.00,Wunderground v.1.15,2013-09-20 05:15:00,
2013-09-20 00:20:00,69.2,67.1,29.66,SW,217,4.0,8.0,93,0.00,,,0.00,Wunderground v.1.15,2013-09-20 05:20:00,
2013-09-20 00:25:00,69.2,67.1,29.66,SW,227,4.0,8.0,93,0.00,,,0.00,Wunderground v.1.15,2013-09-20 05:25:00,
2013-09-20 00:30:00,69.1,67.0,29.66,SW,232,4.0,8.0,93,0.00,,,0.00,Wunderground v.1.15,2013-09-20 05:30:00,
2013-09-20 00:35:00,69.1,67.0,29.65,SW,219,4.0,8.0,93,0.00,,,0.00,Wunderground v.1.15,2013-09-20 05:35:00,
2013-09-20 00:40:00,69.1,67.0,29.65,SW,236,4.0,8.0,93,0.00,,,0.00,Wunderground v.1.15,2013-09-20 05:40:00,
2013-09-20 00:45:00,69.1,67.0,29.64,SW,224,3.0,8.0,93,0.00,,,0.00,Wunderground v.1.15,2013-09-20 05:45:00,
2013-09-20 00:50:00,69.1,67.0,29.63,SSW,198,2.0,2.0,93,0.00,,,0.00,Wunderground v.1.15,2013-09-20 05:50:00,
2013-09-20 00:55:00,69.0,66.9,29.64,SW,236,1.0,8.0,93,0.00,,,0.00,Wunderground v.1.15,2013-09-20 05:55:00,
2013-09-20 01:00:00,69.0,67.2,29.63,West,275,1.0,8.0,94,0.00,,,0.00,Wunderground v.1.15,2013-09-20 06:00:00,
2013-09-20 01:05:00,69.0,67.2,29.64,SW,236,2.0,8.0,94,0.00,,,0.00,Wunderground v.1.15,2013-09-20 06:05:00,
2013-09-20 01:10:00,68.9,67.1,29.65,WSW,237,2.0,8.0,94,0.00,,,0.00,Wunderground v.1.15,2013-09-20 06:10:00,
2013-09-20 01:15:00,68.8,67.0,29.65,SW,236,3.0,8.0,94,0.00,,,0.00,Wunderground v.1.15,2013-09-20 06:15:00,
2013-09-20 01:20:00,68.8,67.0,29.65,WSW,257,3.0,3.0,94,0.00,,,0.00,Wunderground v.1.15,2013-09-20 06:20:00,
2013-09-20 01:25:00,68.8,67.0,29.65,SSW,212,3.0,8.0,94,0.00,,,0.00,Wunderground v.1.15,2013-09-20 06:25:00,
2013-09-20 01:30:00,68.8,67.0,29.65,SSW,211,3.0,8.0,94,0.00,,,0.00,Wunderground v.1.15,2013-09-20 06:30:00,
2013-09-20 01:35:00,68.8,67.0,29.65,SSW,199,4.0,8.0,94,0.00,,,0.00,Wunderground v.1.15,2013-09-20 06:35:00,
2013-09-20 01:40:00,68.8,67.0,29.65,SSW,207,4.0,8.0,94,0.00,,,0.00,Wunderground v.1.15,2013-09-20 06:40:00,
2013-09-20 01:45:00,68.7,66.9,29.65,SSW,200,4.0,8.0,94,0.00,,,0.00,Wunderground v.1.15,2013-09-20 06:45:00,
2013-09-20 01:50:00,68.7,66.9,29.66,SW,222,4.0,8.0,94,0.00,,,0.00,Wunderground v.1.15,2013-09-20 06:50:00,
2013-09-20 01:55:00,68.6,66.8,29.66,SW,217,4.0,8.0,94,0.00,,,0.00,Wunderground v.1.15,2013-09-20 06:55:00,
2013-09-20 02:00:00,68.6,66.8,29.66,SSW,206,5.0,8.0,94,0.00,,,0.00,Wunderground v.1.15,2013-09-20 07:00:00,
2013-09-20 02:05:00,68.6,66.8,29.66,WSW,245,5.0,8.0,94,0.00,,,0.00,Wunderground v.1.15,2013-09-20 07:05:00,
2013-09-20 02:10:00,68.6,66.8,29.66,WSW,244,4.0,8.0,94,0.00,,,0.00,Wunderground v.1.15,2013-09-20 07:10:00,
2013-09-20 02:15:00,68.6,66.8,29.66,WSW,243,4.0,8.0,94,0.00,,,0.00,Wunderground v.1.15,2013-09-20 07:15:00,
2013-09-20 02:20:00,68.6,66.8,29.66,WSW,241,4.0,8.0,94,0.00,,,0.00,Wunderground v.1.15,2013-09-20 07:20:00,
2013-09-20 02:25:00,68.6,66.8,29.66,WSW,246,4.0,8.0,94,0.00,,,0.00,Wunderground v.1.15,2013-09-20 07:25:00,
2013-09-20 02:30:00,68.6,66.8,29.66,SW,230,4.0,4.0,94,0.00,,,0.00,Wunderground v.1.15,2013-09-20 07:30:00,
2013-09-20 02:35:00,68.6,66.8,29.65,WSW,238,4.0,8.0,94,0.00,,,0.00,Wunderground v.1.15,2013-09-20 07:35:00,
2013-09-20 02:40:00,68.5,66.7,29.65,SW,226,5.0,8.0,94,0.00,,,0.00,Wunderground v.1.15,2013-09-20 07:40:00,
2013-09-20 02:45:00,68.5,66.7,29.65,WSW,248,4.0,8.0,94,0.00,,,0.00,Wunderground v.1.15,2013-09-20 07:45:00,
2013-09-20 02:50:00,68.5,66.7,29.65,WSW,258,3.0,3.0,94,0.00,,,0.00,Wunderground v.1.15,2013-09-20 07:50:00,
2013-09-20 02:55:00,68.4,66.6,29.65,SW,236,3.0,4.0,94,0.00,,,0.00,Wunderground v.1.15,2013-09-20 07:55:00,
2013-09-20 03:00:00,68.4,66.9,29.65,WSW,248,3.0,8.0,95,0.00,,,0.00,Wunderground v.1.15,2013-09-20 08:00:00,
2013-09-20 03:05:00,68.3,66.8,29.64,SW,229,3.0,8.0,95,0.00,,,0.00,Wunderground v.1.15,2013-09-20 08:05:00,
2013-09-20 03:10:00,68.3,66.8,29.64,West,267,3.0,3.0,95,0.00,,,0.00,Wunderground v.1.15,2013-09-20 08:10:00,
2013-09-20 03:15:00,68.2,66.7,29.64,SW,227,2.0,8.0,95,0.00,,,0.00,Wunderground v.1.15,2013-09-20 08:15:00,
2013-09-20 03:20:00,68.2,66.7,29.64,SW,223,3.0,8.0,95,0.00,,,0.00,Wunderground v.1.15,2013-09-20 08:20:00,
2013-09-20 03:25:00,68.2,66.7,29.64,SW,222,3.0,8.0,95,0.00,,,0.00,Wunderground v.1.15,2013-09-20 08:25:00,
2013-09-20 03:30:00,68.2,66.7,29.65,SSW,207,4.0,8.0,95,0.00,,,0.00,Wunderground v.1.15,2013-09-20 08:30:00,
2013-09-20 03:35:00,68.1,66.6,29.64,WSW,240,4.0,8.0,95,0.00,,,0.00,Wunderground v.1.15,2013-09-20 08:35:00,
2013-09-20 03:40:00,68.1,66.6,29.64,SW,220,3.0,8.0,95,0.00,,,0.00,Wunderground v.1.15,2013-09-20 08:40:00,
2013-09-20 03:45:00,68.1,66.6,29.64,WSW,255,4.0,8.0,95,0.00,,,0.00,Wunderground v.1.15,2013-09-20 08:45:00,
2013-09-20 03:50:00,68.1,66.6,29.64,WSW,250,4.0,4.0,95,0.00,,,0.00,Wunderground v.1.15,2013-09-20 08:50:00,
2013-09-20 03:55:00,68.1,66.6,29.64,West,262,3.0,8.0,95,0.00,,,0.00,Wunderground v.1.15,2013-09-20 08:55:00,
2013-09-20 04:00:00,68.0,66.5,29.63,West,266,3.0,3.0,95,0.00,,,0.00,Wunderground v.1.15,2013-09-20 09:00:00,
2013-09-20 04:05:00,68.0,66.5,29.63,WSW,258,2.0,8.0,95,0.00,,,0.00,Wunderground v.1.15,2013-09-20 09:05:00,
2013-09-20 04:10:00,68.0,66.5,29.63,WSW,246,2.0,8.0,95,0.00,,,0.00,Wunderground v.1.15,2013-09-20 09:10:00,
2013-09-20 04:15:00,67.9,66.4,29.63,SW,225,2.0,8.0,95,0.00,,,0.00,Wunderground v.1.15,2013-09-20 09:15:00,
2013-09-20 04:20:00,67.8,66.3,29.63,SSW,208,3.0,8.0,95,0.00,,,0.00,Wunderground v.1.15,2013-09-20 09:20:00,
2013-09-20 04:25:00,67.8,66.3,29.63,WSW,248,3.0,8.0,95,0.00,,,0.00,Wunderground v.1.15,2013-09-20 09:25:00,
2013-09-20 04:30:00,67.8,66.3,29.63,WSW,252,2.0,8.0,95,0.00,,,0.00,Wunderground v.1.15,2013-09-20 09:30:00,
2013-09-20 04:35:00,67.7,66.2,29.63,WSW,256,3.0,8.0,95,0.00,,,0.00,Wunderground v.1.15,2013-09-20 09:35:00,
2013-09-20 04:40:00,67.7,66.2,29.63,West,263,3.0,8.0,95,0.00,,,0.00,Wunderground v.1.15,2013-09-20 09:40:00,
2013-09-20 04:45:00,67.7,66.2,29.63,West,260,3.0,8.0,95,0.00,,,0.00,Wunderground v.1.15,2013-09-20 09:45:00,
2013-09-20 04:50:00,67.7,66.2,29.63,West,273,3.0,3.0,95,0.00,,,0.00,Wunderground v.1.15,2013-09-20 09:50:00,
2013-09-20 04:55:00,67.7,66.2,29.63,WSW,248,4.0,4.0,95,0.00,,,0.00,Wunderground v.1.15,2013-09-20 09:55:00,
2013-09-20 05:00:00,67.7,66.5,29.63,SW,234,4.0,4.0,96,0.00,,,0.00,Wunderground v.1.15,2013-09-20 10:00:00,
2013-09-20 05:05:00,67.7,66.5,29.63,West,269,4.0,8.0,96,0.00,,,0.00,Wunderground v.1.15,2013-09-20 10:05:00,
2013-09-20 05:10:00,67.7,66.5,29.63,WSW,248,3.0,8.0,96,0.00,,,0.00,Wunderground v.1.15,2013-09-20 10:10:00,
2013-09-20 05:15:00,67.7,66.5,29.62,WNW,303,3.0,8.0,96,0.00,,,0.00,Wunderground v.1.15,2013-09-20 10:15:00,
2013-09-20 05:20:00,67.6,66.4,29.62,WNW,282,4.0,8.0,96,0.00,,,0.00,Wunderground v.1.15,2013-09-20 10:20:00,
2013-09-20 05:25:00,67.6,66.4,29.62,West,270,3.0,8.0,96,0.00,,,0.00,Wunderground v.1.15,2013-09-20 10:25:00,
2013-09-20 05:30:00,67.6,66.4,29.62,WNW,282,3.0,8.0,96,0.00,,,0.00,Wunderground v.1.15,2013-09-20 10:30:00,
2013-09-20 05:35:00,67.6,66.4,29.62,West,267,3.0,8.0,96,0.00,,,0.00,Wunderground v.1.15,2013-09-20 10:35:00,
2013-09-20 05:40:00,67.5,66.3,29.62,WSW,254,3.0,3.0,96,0.00,,,0.00,Wunderground v.1.15,2013-09-20 10:40:00,
2013-09-20 05:45:00,67.5,66.0,29.62,WSW,245,2.0,8.0,95,0.00,,,0.00,Wunderground v.1.15,2013-09-20 10:45:00,
2013-09-20 05:50:00,67.4,65.9,29.63,WSW,256,2.0,8.0,95,0.00,,,0.00,Wunderground v.1.15,2013-09-20 10:50:00,
2013-09-20 06:00:00,67.3,65.8,29.63,WSW,244,2.0,8.0,95,0.00,,,0.00,Wunderground v.1.15,2013-09-20 11:00:00,
2013-09-20 06:10:00,67.3,66.1,29.63,WSW,252,2.0,8.0,96,0.00,,,0.00,Wunderground v.1.15,2013-09-20 11:10:00,
2013-09-20 06:20:00,67.2,66.0,29.63,SW,236,3.0,3.0,96,0.00,,,0.00,Wunderground v.1.15,2013-09-20 11:20:00,
2013-09-20 06:30:00,67.1,65.9,29.63,WSW,252,3.0,3.0,96,0.00,,,0.00,Wunderground v.1.15,2013-09-20 11:30:00,
2013-09-20 06:35:00,67.0,65.8,29.64,WSW,247,4.0,5.0,96,0.00,,,0.00,Wunderground v.1.15,2013-09-20 11:35:00,
2013-09-20 06:40:00,67.0,65.8,29.64,West,259,3.0,3.0,96,0.00,,,0.00,Wunderground v.1.15,2013-09-20 11:40:00,
2013-09-20 06:45:00,67.0,65.8,29.64,WSW,246,3.0,8.0,96,0.00,,,0.00,Wunderground v.1.15,2013-09-20 11:45:00,
2013-09-20 06:50:00,67.0,65.8,29.64,WSW,240,3.0,8.0,96,0.00,,,0.00,Wunderground v.1.15,2013-09-20 11:50:00,
2013-09-20 06:55:00,67.0,65.8,29.64,WSW,246,3.0,8.0,96,0.00,,,0.00,Wunderground v.1.15,2013-09-20 11:55:00,
2013-09-20 07:00:00,67.0,65.8,29.64,SSW,202,3.0,8.0,96,0.00,,,0.00,Wunderground v.1.15,2013-09-20 12:00:00,
2013-09-20 07:10:00,67.0,65.8,29.65,WSW,238,3.0,8.0,96,0.00,,,0.00,Wunderground v.1.15,2013-09-20 12:10:00,
2013-09-20 07:15:00,67.1,65.9,29.65,SW,235,3.0,8.0,96,0.00,,,0.00,Wunderground v.1.15,2013-09-20 12:15:00,
2013-09-20 07:20:00,67.1,65.9,29.65,WSW,254,4.0,8.0,96,0.00,,,0.00,Wunderground v.1.15,2013-09-20 12:20:00,
2013-09-20 07:30:00,67.1,65.9,29.65,SW,225,3.0,3.0,96,0.00,,,0.00,Wunderground v.1.15,2013-09-20 12:30:00,
2013-09-20 07:35:00,67.1,65.9,29.65,WSW,255,3.0,8.0,96,0.00,,,0.00,Wunderground v.1.15,2013-09-20 12:35:00,
2013-09-20 07:40:00,67.1,65.9,29.65,West,262,2.0,2.0,96,0.00,,,0.00,Wunderground v.1.15,2013-09-20 12:40:00,
2013-09-20 07:45:00,67.1,65.9,29.65,WSW,238,2.0,3.0,96,0.00,,,0.00,Wunderground v.1.15,2013-09-20 12:45:00,
2013-09-20 07:50:00,67.2,66.0,29.65,SW,229,3.0,3.0,96,0.00,,,0.00,Wunderground v.1.15,2013-09-20 12:50:00,
2013-09-20 08:00:00,67.2,66.0,29.65,WSW,246,2.0,8.0,96,0.00,,,0.00,Wunderground v.1.15,2013-09-20 13:00:00,
2013-09-20 08:05:00,67.2,66.0,29.65,WSW,248,2.0,8.0,96,0.00,,,0.00,Wunderground v.1.15,2013-09-20 13:05:00,
2013-09-20 08:10:00,67.1,65.9,29.65,SW,220,2.0,8.0,96,0.00,,,0.00,Wunderground v.1.15,2013-09-20 13:10:00,
2013-09-20 08:15:00,67.2,66.0,29.65,SSW,207,3.0,8.0,96,0.00,,,0.00,Wunderground v.1.15,2013-09-20 13:15:00,
2013-09-20 08:20:00,67.2,66.0,29.65,SSW,204,3.0,8.0,96,0.00,,,0.00,Wunderground v.1.15,2013-09-20 13:20:00,
2013-09-20 08:25:00,67.2,66.0,29.65,SW,234,2.0,8.0,96,0.00,,,0.00,Wunderground v.1.15,2013-09-20 13:25:00,
2013-09-20 08:30:00,67.4,66.2,29.65,WSW,238,2.0,8.0,96,0.00,,,0.00,Wunderground v.1.15,2013-09-20 13:30:00,
2013-09-20 08:35:00,67.4,66.2,29.65,SW,232,2.0,8.0,96,0.00,,,0.00,Wunderground v.1.15,2013-09-20 13:35:00,
2013-09-20 08:40:00,67.5,66.3,29.65,SW,235,3.0,8.0,96,0.00,,,0.00,Wunderground v.1.15,2013-09-20 13:40:00,
2013-09-20 08:45:00,67.6,66.4,29.65,WSW,238,3.0,8.0,96,0.00,,,0.00,Wunderground v.1.15,2013-09-20 13:45:00,
2013-09-20 08:50:00,67.6,66.4,29.65,SW,221,4.0,4.0,96,0.00,,,0.00,Wunderground v.1.15,2013-09-20 13:50:00,
2013-09-20 08:55:00,67.7,66.5,29.66,SW,222,4.0,8.0,96,0.00,,,0.00,Wunderground v.1.15,2013-09-20 13:55:00,
2013-09-20 09:05:00,67.8,66.6,29.65,SW,225,4.0,8.0,96,0.00,,,0.00,Wunderground v.1.15,2013-09-20 14:05:00,
2013-09-20 09:10:00,67.9,66.7,29.66,SW,234,3.0,8.0,96,0.00,,,0.00,Wunderground v.1.15,2013-09-20 14:10:00,
2013-09-20 09:15:00,67.9,66.7,29.65,SW,217,4.0,8.0,96,0.00,,,0.00,Wunderground v.1.15,2013-09-20 14:15:00,
2013-09-20 09:20:00,67.9,66.7,29.66,SW,223,4.0,4.0,96,0.00,,,0.00,Wunderground v.1.15,2013-09-20 14:20:00,
2013-09-20 09:25:00,67.9,66.7,29.66,WSW,250,4.0,8.0,96,0.00,,,0.00,Wunderground v.1.15,2013-09-20 14:25:00,
2013-09-20 09:30:00,68.0,66.8,29.66,WSW,242,4.0,4.0,96,0.00,,,0.00,Wunderground v.1.15,2013-09-20 14:30:00,
2013-09-20 09:35:00,68.2,67.0,29.66,WSW,246,4.0,8.0,96,0.00,,,0.00,Wunderground v.1.15,2013-09-20 14:35:00,
2013-09-20 09:40:00,68.2,67.0,29.66,SW,227,4.0,8.0,96,0.00,,,0.00,Wunderground v.1.15,2013-09-20 14:40:00,
2013-09-20 09:45:00,68.4,67.2,29.66,SW,235,4.0,8.0,96,0.00,,,0.00,Wunderground v.1.15,2013-09-20 14:45:00,
2013-09-20 09:50:00,68.4,66.9,29.66,West,259,4.0,8.0,95,0.00,,,0.00,Wunderground v.1.15,2013-09-20 14:50:00,
2013-09-20 09:55:00,68.5,67.0,29.66,SSW,198,4.0,8.0,95,0.00,,,0.00,Wunderground v.1.15,2013-09-20 14:55:00,
2013-09-20 10:00:00,68.7,67.2,29.66,West,261,4.0,8.0,95,0.00,,,0.00,Wunderground v.1.15,2013-09-20 15:00:00,
2013-09-20 10:05:00,68.6,67.1,29.66,SSW,207,4.0,8.0,95,0.00,,,0.00,Wunderground v.1.15,2013-09-20 15:05:00,
2013-09-20 10:15:00,68.8,67.3,29.66,West,277,4.0,8.0,95,0.00,,,0.00,Wunderground v.1.15,2013-09-20 15:15:00,
2013-09-20 10:20:00,68.9,67.4,29.66,WSW,246,4.0,8.0,95,0.00,,,0.00,Wunderground v.1.15,2013-09-20 15:20:00,
2013-09-20 10:25:00,69.0,67.2,29.66,SW,219,3.0,8.0,94,0.00,,,0.00,Wunderground v.1.15,2013-09-20 15:25:00,
2013-09-20 10:30:00,69.1,67.3,29.65,WSW,254,3.0,8.0,94,0.00,,,0.00,Wunderground v.1.15,2013-09-20 15:30:00,
2013-09-20 10:35:00,69.3,67.5,29.65,West,269,4.0,8.0,94,0.00,,,0.00,Wunderground v.1.15,2013-09-20 15:35:00,
2013-09-20 10:40:00,69.7,67.9,29.65,West,272,4.0,4.0,94,0.00,,,0.00,Wunderground v.1.15,2013-09-20 15:40:00,
2013-09-20 10:45:00,70.0,67.9,29.65,West,271,4.0,6.0,93,0.00,,,0.00,Wunderground v.1.15,2013-09-20 15:45:00,
2013-09-20 10:50:00,70.2,67.8,29.65,SW,232,5.0,8.0,92,0.00,,,0.00,Wunderground v.1.15,2013-09-20 15:50:00,
2013-09-20 10:55:00,70.3,67.5,29.65,West,277,5.0,8.0,91,0.00,,,0.00,Wunderground v.1.15,2013-09-20 15:55:00,
2013-09-20 11:00:00,70.4,67.3,29.65,WSW,252,6.0,6.0,90,0.00,,,0.01,Wunderground v.1.15,2013-09-20 16:00:00,
2013-09-20 11:05:00,70.4,67.3,29.65,WNW,287,6.0,9.0,90,0.00,,,0.01,Wunderground v.1.15,2013-09-20 16:05:00,
2013-09-20 11:10:00,70.4,67.3,29.65,WNW,287,6.0,8.0,90,0.00,,,0.01,Wunderground v.1.15,2013-09-20 16:10:00,
2013-09-20 11:15:00,70.4,67.3,29.65,West,265,6.0,8.0,90,0.00,,,0.01,Wunderground v.1.15,2013-09-20 16:15:00,
2013-09-20 11:20:00,70.4,67.0,29.65,WNW,284,5.0,5.0,89,0.00,,,0.01,Wunderground v.1.15,2013-09-20 16:20:00,
2013-09-20 11:25:00,70.5,67.1,29.65,West,270,5.0,8.0,89,0.00,,,0.01,Wunderground v.1.15,2013-09-20 16:25:00,
2013-09-20 11:30:00,70.6,67.2,29.65,WSW,243,6.0,8.0,89,0.00,,,0.01,Wunderground v.1.15,2013-09-20 16:30:00,
2013-09-20 11:35:00,70.7,66.6,29.65,WSW,239,6.0,8.0,87,0.00,,,0.01,Wunderground v.1.15,2013-09-20 16:35:00,
2013-09-20 11:40:00,70.9,66.8,29.65,WSW,245,6.0,6.0,87,0.00,,,0.01,Wunderground v.1.15,2013-09-20 16:40:00,
2013-09-20 11:45:00,71.1,67.0,29.65,West,259,5.0,8.0,87,0.00,,,0.01,Wunderground v.1.15,2013-09-20 16:45:00,
2013-09-20 11:50:00,71.0,66.6,29.65,West,277,6.0,10.0,86,0.00,,,0.01,Wunderground v.1.15,2013-09-20 16:50:00,
2013-09-20 11:55:00,71.2,66.8,29.64,West,275,6.0,10.0,86,0.00,,,0.01,Wunderground v.1.15,2013-09-20 16:55:00,
2013-09-20 12:00:00,71.3,66.6,29.65,WSW,246,6.0,8.0,85,0.00,,,0.01,Wunderground v.1.15,2013-09-20 17:00:00,
2013-09-20 12:05:00,71.1,66.0,29.64,WSW,249,7.0,8.0,84,0.00,,,0.01,Wunderground v.1.15,2013-09-20 17:05:00,
2013-09-20 12:10:00,71.1,65.7,29.64,West,270,7.0,7.0,83,0.00,,,0.01,Wunderground v.1.15,2013-09-20 17:10:00,
2013-09-20 12:15:00,71.1,65.7,29.64,West,267,7.0,8.0,83,0.00,,,0.01,Wunderground v.1.15,2013-09-20 17:15:00,
2013-09-20 12:20:00,71.2,65.8,29.65,West,268,7.0,10.0,83,0.00,,,0.01,Wunderground v.1.15,2013-09-20 17:20:00,
2013-09-20 12:25:00,71.0,65.2,29.65,WSW,252,8.0,10.0,82,0.00,,,0.01,Wunderground v.1.15,2013-09-20 17:25:00,
2013-09-20 12:30:00,71.0,64.9,29.65,SW,234,8.0,8.0,81,0.00,,,0.01,Wunderground v.1.15,2013-09-20 17:30:00,
2013-09-20 12:35:00,71.0,64.5,29.65,WNW,288,8.0,10.0,80,0.00,,,0.01,Wunderground v.1.15,2013-09-20 17:35:00,
2013-09-20 12:40:00,70.8,64.0,29.65,WNW,288,9.0,12.0,79,0.00,,,0.01,Wunderground v.1.15,2013-09-20 17:40:00,
2013-09-20 12:45:00,70.8,63.6,29.65,WNW,286,9.0,12.0,78,0.00,,,0.01,Wunderground v.1.15,2013-09-20 17:45:00,
2013-09-20 12:50:00,70.9,63.7,29.64,WNW,298,8.0,11.0,78,0.00,,,0.01,Wunderground v.1.15,2013-09-20 17:50:00,
2013-09-20 12:55:00,70.9,63.7,29.64,WSW,255,8.0,11.0,78,0.00,,,0.01,Wunderground v.1.15,2013-09-20 17:55:00,
2013-09-20 13:00:00,71.0,63.4,29.64,WNW,288,8.0,8.0,77,0.00,,,0.01,Wunderground v.1.15,2013-09-20 18:00:00,
2013-09-20 13:05:00,71.1,63.5,29.64,West,281,7.0,8.0,77,0.00,,,0.01,Wunderground v.1.15,2013-09-20 18:05:00,
2013-09-20 13:10:00,71.2,63.6,29.64,WSW,246,6.0,6.0,77,0.00,,,0.01,Wunderground v.1.15,2013-09-20 18:10:00,
2013-09-20 13:15:00,71.1,63.1,29.64,West,265,7.0,8.0,76,0.00,,,0.01,Wunderground v.1.15,2013-09-20 18:15:00,
2013-09-20 13:20:00,71.1,63.1,29.65,WSW,238,8.0,8.0,76,0.00,,,0.01,Wunderground v.1.15,2013-09-20 18:20:00,
2013-09-20 13:25:00,71.3,63.3,29.64,West,275,7.0,8.0,76,0.00,,,0.01,Wunderground v.1.15,2013-09-20 18:25:00,
2013-09-20 13:30:00,71.4,63.4,29.64,WSW,256,6.0,12.0,76,0.00,,,0.01,Wunderground v.1.15,2013-09-20 18:30:00,
2013-09-20 13:35:00,71.6,63.3,29.64,SW,236,8.0,12.0,75,0.00,,,0.01,Wunderground v.1.15,2013-09-20 18:35:00,
2013-09-20 13:40:00,71.7,63.7,29.64,WSW,254,7.0,8.0,76,0.00,,,0.01,Wunderground v.1.15,2013-09-20 18:40:00,
2013-09-20 13:45:00,71.9,63.5,29.64,West,276,6.0,8.0,75,0.00,,,0.01,Wunderground v.1.15,2013-09-20 18:45:00,
2013-09-20 13:50:00,72.1,63.7,29.64,WNW,284,7.0,8.0,75,0.00,,,0.01,Wunderground v.1.15,2013-09-20 18:50:00,
2013-09-20 13:55:00,72.3,63.5,29.64,West,278,7.0,11.0,74,0.00,,,0.01,Wunderground v.1.15,2013-09-20 18:55:00,
2013-09-20 14:00:00,72.4,63.6,29.64,WNW,302,6.0,9.0,74,0.00,,,0.01,Wunderground v.1.15,2013-09-20 19:00:00,
2013-09-20 14:05:00,72.6,62.7,29.64,WNW,286,7.0,9.0,71,0.00,,,0.01,Wunderground v.1.15,2013-09-20 19:05:00,
2013-09-20 14:10:00,72.8,62.0,29.64,WNW,293,7.0,7.0,69,0.00,,,0.01,Wunderground v.1.15,2013-09-20 19:10:00,
2013-09-20 14:15:00,72.8,61.2,29.64,WNW,289,7.0,8.0,67,0.00,,,0.01,Wunderground v.1.15,2013-09-20 19:15:00,
2013-09-20 14:20:00,72.8,61.2,29.64,West,264,6.0,8.0,67,0.00,,,0.01,Wunderground v.1.15,2013-09-20 19:20:00,
2013-09-20 14:25:00,72.8,61.6,29.64,NNW,329,7.0,8.0,68,0.00,,,0.01,Wunderground v.1.15,2013-09-20 19:25:00,
2013-09-20 14:30:00,72.7,61.1,29.64,WNW,291,8.0,8.0,67,0.00,,,0.01,Wunderground v.1.15,2013-09-20 19:30:00,
2013-09-20 14:35:00,72.7,61.1,29.64,WNW,294,7.0,8.0,67,0.00,,,0.01,Wunderground v.1.15,2013-09-20 19:35:00,
2013-09-20 14:40:00,72.9,60.9,29.64,NNW,335,6.0,6.0,66,0.00,,,0.01,Wunderground v.1.15,2013-09-20 19:40:00,
2013-09-20 14:45:00,73.1,61.1,29.64,West,265,6.0,8.0,66,0.00,,,0.01,Wunderground v.1.15,2013-09-20 19:45:00,
2013-09-20 14:50:00,73.0,61.0,29.64,West,276,6.0,8.0,66,0.00,,,0.01,Wunderground v.1.15,2013-09-20 19:50:00,
2013-09-20 14:55:00,72.7,60.7,29.64,WNW,303,7.0,8.0,66,0.00,,,0.01,Wunderground v.1.15,2013-09-20 19:55:00,
2013-09-20 15:00:00,72.7,60.3,29.64,West,270,7.0,8.0,65,0.00,,,0.01,Wunderground v.1.15,2013-09-20 20:00:00,
2013-09-20 15:05:00,72.8,60.3,29.64,West,281,6.0,8.0,65,0.00,,,0.01,Wunderground v.1.15,2013-09-20 20:05:00,
2013-09-20 15:10:00,73.0,60.5,29.64,WSW,253,6.0,8.0,65,0.00,,,0.01,Wunderground v.1.15,2013-09-20 20:10:00,
2013-09-20 15:15:00,73.0,60.5,29.63,WNW,301,6.0,8.0,65,0.00,,,0.01,Wunderground v.1.15,2013-09-20 20:15:00,
2013-09-20 15:20:00,73.0,61.0,29.64,West,274,6.0,6.0,66,0.00,,,0.01,Wunderground v.1.15,2013-09-20 20:20:00,
2013-09-20 15:25:00,72.9,60.9,29.64,WSW,248,6.0,8.0,66,0.00,,,0.01,Wunderground v.1.15,2013-09-20 20:25:00,
2013-09-20 15:30:00,72.9,60.9,29.64,WNW,285,6.0,6.0,66,0.00,,,0.01,Wunderground v.1.15,2013-09-20 20:30:00,
2013-09-20 15:40:00,73.4,60.5,29.63,WSW,246,6.0,8.0,64,0.00,,,0.01,Wunderground v.1.15,2013-09-20 20:40:00,
2013-09-20 15:50:00,73.9,61.4,29.64,WSW,252,6.0,6.0,65,0.00,,,0.01,Wunderground v.1.15,2013-09-20 20:50:00,
2013-09-20 15:55:00,73.6,59.8,29.64,West,265,7.0,7.0,62,0.00,,,0.01,Wunderground v.1.15,2013-09-20 20:55:00,
2013-09-20 16:00:00,73.8,60.0,29.64,WSW,248,7.0,7.0,62,0.00,,,0.01,Wunderground v.1.15,2013-09-20 21:00:00,
2013-09-20 16:05:00,73.6,59.8,29.64,WSW,238,6.0,8.0,62,0.00,,,0.01,Wunderground v.1.15,2013-09-20 21:05:00,
2013-09-20 16:10:00,73.2,59.4,29.64,WSW,252,5.0,5.0,62,0.00,,,0.01,Wunderground v.1.15,2013-09-20 21:10:00,
2013-09-20 16:15:00,72.5,59.2,29.64,SW,234,4.0,8.0,63,0.00,,,0.01,Wunderground v.1.15,2013-09-20 21:15:00,
2013-09-20 16:20:00,72.2,59.8,29.64,WSW,250,4.0,4.0,65,0.00,,,0.01,Wunderground v.1.15,2013-09-20 21:20:00,
2013-09-20 16:25:00,72.1,60.5,29.63,WSW,244,4.0,6.0,67,0.00,,,0.01,Wunderground v.1.15,2013-09-20 21:25:00,
2013-09-20 16:30:00,72.2,60.6,29.64,SSW,213,5.0,8.0,67,0.00,,,0.01,Wunderground v.1.15,2013-09-20 21:30:00,
2013-09-20 16:35:00,72.1,60.1,29.64,West,269,6.0,8.0,66,0.00,,,0.01,Wunderground v.1.15,2013-09-20 21:35:00,
2013-09-20 16:40:00,72.7,60.7,29.64,West,268,5.0,8.0,66,0.00,,,0.01,Wunderground v.1.15,2013-09-20 21:40:00,
2013-09-20 16:50:00,73.0,61.0,29.64,West,270,5.0,8.0,66,0.00,,,0.01,Wunderground v.1.15,2013-09-20 21:50:00,
2013-09-20 16:55:00,72.9,60.4,29.64,West,261,5.0,8.0,65,0.00,,,0.01,Wunderground v.1.15,2013-09-20 21:55:00,
2013-09-20 17:00:00,72.5,60.5,29.64,WSW,248,6.0,6.0,66,0.00,,,0.01,Wunderground v.1.15,2013-09-20 22:00:00,
2013-09-20 17:05:00,72.2,60.6,29.64,WNW,292,7.0,11.0,67,0.00,,,0.01,Wunderground v.1.15,2013-09-20 22:05:00,
2013-09-20 17:10:00,71.6,60.5,29.64,WSW,248,7.0,7.0,68,0.00,,,0.01,Wunderground v.1.15,2013-09-20 22:10:00,
2013-09-20 17:15:00,71.2,60.5,29.64,West,272,7.0,9.0,69,0.00,,,0.01,Wunderground v.1.15,2013-09-20 22:15:00,
2013-09-20 17:20:00,71.3,60.2,29.64,West,278,7.0,10.0,68,0.00,,,0.01,Wunderground v.1.15,2013-09-20 22:20:00,
2013-09-20 17:30:00,71.0,59.9,29.64,WSW,243,7.0,7.0,68,0.00,,,0.01,Wunderground v.1.15,2013-09-20 22:30:00,
2013-09-20 17:35:00,70.9,59.8,29.65,West,263,7.0,8.0,68,0.00,,,0.01,Wunderground v.1.15,2013-09-20 22:35:00,
2013-09-20 17:40:00,70.9,59.8,29.65,West,266,6.0,10.0,68,0.00,,,0.01,Wunderground v.1.15,2013-09-20 22:40:00,
2013-09-20 17:45:00,70.8,59.7,29.65,West,263,6.0,10.0,68,0.00,,,0.01,Wunderground v.1.15,2013-09-20 22:45:00,
2013-09-20 17:50:00,70.6,59.1,29.65,WNW,284,6.0,6.0,67,0.00,,,0.01,Wunderground v.1.15,2013-09-20 22:50:00,
2013-09-20 17:55:00,70.2,59.1,29.65,WSW,239,6.0,8.0,68,0.00,,,0.01,Wunderground v.1.15,2013-09-20 22:55:00,
2013-09-20 18:00:00,70.0,59.0,29.65,WSW,252,5.0,5.0,68,0.00,,,0.01,Wunderground v.1.15,2013-09-20 23:00:00,
2013-09-20 18:05:00,69.9,58.9,29.65,SW,234,4.0,8.0,68,0.00,,,0.01,Wunderground v.1.15,2013-09-20 23:05:00,
2013-09-20 18:10:00,69.6,59.0,29.65,West,280,5.0,8.0,69,0.00,,,0.01,Wunderground v.1.15,2013-09-20 23:10:00,
2013-09-20 18:15:00,69.3,58.7,29.65,WNW,300,5.0,8.0,69,0.00,,,0.01,Wunderground v.1.15,2013-09-20 23:15:00,
2013-09-20 18:20:00,68.9,58.3,29.66,WSW,242,5.0,5.0,69,0.00,,,0.01,Wunderground v.1.15,2013-09-20 23:20:00,
2013-09-20 18:25:00,68.6,58.0,29.65,West,271,5.0,8.0,69,0.00,,,0.01,Wunderground v.1.15,2013-09-20 23:25:00,
2013-09-20 18:30:00,68.4,58.2,29.65,West,263,4.0,4.0,70,0.00,,,0.01,Wunderground v.1.15,2013-09-20 23:30:00,
2013-09-20 18:35:00,68.2,58.0,29.66,WNW,283,4.0,8.0,70,0.00,,,0.01,Wunderground v.1.15,2013-09-20 23:35:00,
2013-09-20 18:40:00,68.0,57.8,29.66,West,273,4.0,8.0,70,0.00,,,0.01,Wunderground v.1.15,2013-09-20 23:40:00,
2013-09-20 18:45:00,67.9,57.8,29.66,WNW,285,5.0,8.0,70,0.00,,,0.01,Wunderground v.1.15,2013-09-20 23:45:00,
2013-09-20 18:50:00,67.7,58.0,29.67,NNW,329,5.0,5.0,71,0.00,,,0.01,Wunderground v.1.15,2013-09-20 23:50:00,
2013-09-20 18:55:00,67.6,57.9,29.67,West,263,4.0,8.0,71,0.00,,,0.01,Wunderground v.1.15,2013-09-20 23:55:00,
2013-09-20 19:00:00,67.4,58.1,29.67,WNW,290,4.0,4.0,72,0.00,,,0.01,Wunderground v.1.15,2013-09-21 00:00:00,
2013-09-20 19:05:00,67.2,57.9,29.67,WNW,284,3.0,8.0,72,0.00,,,0.01,Wunderground v.1.15,2013-09-21 00:05:00,
2013-09-20 19:10:00,67.1,58.2,29.67,West,267,3.0,8.0,73,0.00,,,0.01,Wunderground v.1.15,2013-09-21 00:10:00,
2013-09-20 19:15:00,66.9,57.6,29.67,West,265,3.0,8.0,72,0.00,,,0.01,Wunderground v.1.15,2013-09-21 00:15:00,
2013-09-20 19:20:00,66.8,57.1,29.67,WNW,296,5.0,5.0,71,0.00,,,0.01,Wunderground v.1.15,2013-09-21 00:20:00,
2013-09-20 19:25:00,66.7,57.0,29.67,WNW,293,5.0,8.0,71,0.00,,,0.01,Wunderground v.1.15,2013-09-21 00:25:00,
2013-09-20 19:30:00,66.5,57.2,29.68,WNW,292,3.0,8.0,72,0.00,,,0.01,Wunderground v.1.15,2013-09-21 00:30:00,
2013-09-20 19:35:00,66.3,57.0,29.68,NW,306,4.0,8.0,72,0.00,,,0.01,Wunderground v.1.15,2013-09-21 00:35:00,
2013-09-20 19:40:00,66.0,57.1,29.68,NNW,333,5.0,8.0,73,0.00,,,0.01,Wunderground v.1.15,2013-09-21 00:40:00,
2013-09-20 19:45:00,65.7,56.8,29.68,NW,319,6.0,8.0,73,0.00,,,0.01,Wunderground v.1.15,2013-09-21 00:45:00,
2013-09-20 19:50:00,65.4,56.5,29.69,NNW,332,7.0,7.0,73,0.00,,,0.01,Wunderground v.1.15,2013-09-21 00:50:00,
2013-09-20 19:55:00,65.1,56.2,29.69,NNW,330,7.0,10.0,73,0.00,,,0.01,Wunderground v.1.15,2013-09-21 00:55:00,
2013-09-20 20:00:00,64.7,55.8,29.69,NW,305,7.0,7.0,73,0.00,,,0.01,Wunderground v.1.15,2013-09-21 01:00:00,
2013-09-20 20:05:00,64.4,55.9,29.70,NW,321,6.0,11.0,74,0.00,,,0.01,Wunderground v.1.15,2013-09-21 01:05:00,
2013-09-20 20:15:00,63.8,55.7,29.70,NW,305,6.0,8.0,75,0.00,,,0.01,Wunderground v.1.15,2013-09-21 01:15:00,
2013-09-20 20:20:00,63.5,55.4,29.70,NW,326,7.0,10.0,75,0.00,,,0.01,Wunderground v.1.15,2013-09-21 01:20:00,
2013-09-20 20:25:00,63.3,55.6,29.70,North,360,7.0,10.0,76,0.00,,,0.01,Wunderground v.1.15,2013-09-21 01:25:00,
2013-09-20 20:30:00,63.0,55.3,29.71,NW,320,7.0,9.0,76,0.00,,,0.01,Wunderground v.1.15,2013-09-21 01:30:00,
2013-09-20 20:40:00,62.6,54.9,29.71,NNW,337,6.0,8.0,76,0.00,,,0.01,Wunderground v.1.15,2013-09-21 01:40:00,
2013-09-20 20:45:00,62.3,54.6,29.71,NNW,347,5.0,8.0,76,0.00,,,0.01,Wunderground v.1.15,2013-09-21 01:45:00,
2013-09-20 20:50:00,62.1,54.8,29.71,NNW,334,5.0,8.0,77,0.00,,,0.01,Wunderground v.1.15,2013-09-21 01:50:00,
2013-09-20 20:55:00,61.9,54.6,29.71,NNW,329,4.0,8.0,77,0.00,,,0.01,Wunderground v.1.15,2013-09-21 01:55:00,
2013-09-20 21:00:00,61.7,54.8,29.71,NW,309,4.0,8.0,78,0.00,,,0.01,Wunderground v.1.15,2013-09-21 02:00:00,
2013-09-20 21:05:00,61.4,54.5,29.72,NNW,342,4.0,8.0,78,0.00,,,0.01,Wunderground v.1.15,2013-09-21 02:05:00,
2013-09-20 21:10:00,61.2,54.3,29.72,NNW,329,4.0,8.0,78,0.00,,,0.01,Wunderground v.1.15,2013-09-21 02:10:00,
2013-09-20 21:15:00,60.9,54.3,29.72,NNW,334,4.0,8.0,79,0.00,,,0.01,Wunderground v.1.15,2013-09-21 02:15:00,
2013-09-20 21:20:00,60.7,54.1,29.72,NNW,334,4.0,8.0,79,0.00,,,0.01,Wunderground v.1.15,2013-09-21 02:20:00,
2013-09-20 21:25:00,60.5,54.3,29.72,North,10,4.0,8.0,80,0.00,,,0.01,Wunderground v.1.15,2013-09-21 02:25:00,
2013-09-20 21:35:00,60.3,54.1,29.72,NNW,337,4.0,8.0,80,0.00,,,0.01,Wunderground v.1.15,2013-09-21 02:35:00,
2013-09-20 21:40:00,60.1,54.2,29.73,NW,322,4.0,8.0,81,0.00,,,0.01,Wunderground v.1.15,2013-09-21 02:40:00,
2013-09-20 21:45:00,60.0,54.2,29.73,NNW,331,5.0,8.0,81,0.00,,,0.01,Wunderground v.1.15,2013-09-21 02:45:00,
2013-09-20 21:50:00,59.9,54.1,29.73,NNW,348,4.0,8.0,81,0.00,,,0.01,Wunderground v.1.15,2013-09-21 02:50:00,
2013-09-20 21:55:00,59.8,54.0,29.73,NW,324,3.0,8.0,81,0.00,,,0.01,Wunderground v.1.15,2013-09-21 02:55:00,
2013-09-20 22:00:00,59.7,53.9,29.73,NNW,341,4.0,8.0,81,0.00,,,0.01,Wunderground v.1.15,2013-09-21 03:00:00,
2013-09-20 22:05:00,59.6,53.8,29.73,NNW,333,5.0,8.0,81,0.00,,,0.01,Wunderground v.1.15,2013-09-21 03:05:00,
2013-09-20 22:15:00,59.5,53.3,29.73,NW,319,5.0,8.0,80,0.00,,,0.01,Wunderground v.1.15,2013-09-21 03:15:00,
2013-09-20 22:20:00,59.6,52.7,29.74,North,360,6.0,10.0,78,0.00,,,0.01,Wunderground v.1.15,2013-09-21 03:20:00,
2013-09-20 22:25:00,59.6,52.0,29.74,NW,322,7.0,10.0,76,0.00,,,0.01,Wunderground v.1.15,2013-09-21 03:25:00,
2013-09-20 22:30:00,59.6,52.4,29.74,NNW,328,6.0,8.0,77,0.00,,,0.01,Wunderground v.1.15,2013-09-21 03:30:00,
2013-09-20 22:35:00,59.6,52.4,29.74,NW,322,5.0,8.0,77,0.00,,,0.01,Wunderground v.1.15,2013-09-21 03:35:00,
2013-09-20 22:40:00,59.5,52.6,29.74,NW,308,4.0,4.0,78,0.00,,,0.01,Wunderground v.1.15,2013-09-21 03:40:00,
2013-09-20 22:45:00,59.3,52.8,29.74,NW,306,3.0,8.0,79,0.00,,,0.01,Wunderground v.1.15,2013-09-21 03:45:00,
2013-09-20 22:50:00,59.2,52.7,29.74,WNW,298,2.0,8.0,79,0.00,,,0.01,Wunderground v.1.15,2013-09-21 03:50:00,
2013-09-20 22:55:00,59.0,52.5,29.74,NW,317,2.0,8.0,79,0.00,,,0.01,Wunderground v.1.15,2013-09-21 03:55:00,
2013-09-20 23:00:00,58.9,52.1,29.74,North,351,3.0,8.0,78,0.00,,,0.01,Wunderground v.1.15,2013-09-21 04:00:00,
2013-09-20 23:05:00,58.8,52.0,29.75,NNW,341,4.0,8.0,78,0.00,,,0.01,Wunderground v.1.15,2013-09-21 04:05:00,
2013-09-20 23:10:00,58.9,51.7,29.75,NNW,334,5.0,5.0,77,0.00,,,0.01,Wunderground v.1.15,2013-09-21 04:10:00,
2013-09-20 23:15:00,58.9,51.7,29.75,NNW,344,5.0,8.0,77,0.00,,,0.01,Wunderground v.1.15,2013-09-21 04:15:00,
2013-09-20 23:20:00,58.8,51.6,29.75,NNW,340,5.0,8.0,77,0.00,,,0.01,Wunderground v.1.15,2013-09-21 04:20:00,
2013-09-20 23:25:00,58.7,51.5,29.75,North,350,5.0,8.0,77,0.00,,,0.01,Wunderground v.1.15,2013-09-21 04:25:00,
2013-09-20 23:30:00,58.7,51.5,29.75,NNW,344,6.0,8.0,77,0.00,,,0.01,Wunderground v.1.15,2013-09-21 04:30:00,
2013-09-20 23:35:00,58.5,51.3,29.75,NNW,340,6.0,8.0,77,0.00,,,0.01,Wunderground v.1.15,2013-09-21 04:35:00,
2013-09-20 23:40:00,58.4,51.6,29.75,NW,325,5.0,8.0,78,0.00,,,0.01,Wunderground v.1.15,2013-09-21 04:40:00,
2013-09-20 23:45:00,58.4,51.6,29.75,NNW,337,5.0,8.0,78,0.00,,,0.01,Wunderground v.1.15,2013-09-21 04:45:00,
2013-09-20 23:50:00,58.2,51.4,29.75,NNW,336,5.0,8.0,78,0.00,,,0.01,Wunderground v.1.15,2013-09-21 04:50:00,
2013-09-20 23:55:00,58.2,51.4,29.75,NW,315,6.0,8.0,78,0.00,,,0.01,Wunderground v.1.15,2013-09-21 04:55:00,